Theta_e
306 308 309 309 308 309 311 314 315 316 317 318 319 319 319 319 319 321 320 315 316 313 308 307 304 300 298 295 294 293 293 294 292 292 293 293 292 292 293 293 293 293 294
304 307 308 309 310 310 310 311 312 312 312 316 314 314 313 312 312 315 312 310 310 305 302 301 299 296 293 292 291 291 291 291 290 288 290 290 290 290 291 290 292 292 292
301 302 303 304 306 307 308 309 309 308 307 306 307 309 308 307 305 305 308 305 303 300 298 295 293 292 290 289 289 289 290 291 290 289 288 288 288 288 288 288 288 288 291
299 299 299 300 301 303 304 305 305 304 303 302 302 302 301 301 301 299 298 297 295 293 293 292 291 290 290 289 288 288 289 288 287 286 285 285 286 286 284 283 284 286 286
297 298 298 298 298 299 299 300 300 299 299 298 297 297 296 296 295 294 292 292 290 290 290 290 290 289 289 290 289 288 287 286 285 284 283 283 282 282 282 284 284 285 286
295 294 293 293 295 295 296 296 296 296 295 294 293 293 292 291 293 293 291 289 288 288 288 288 289 286 287 290 291 291 289 286 285 284 283 283 283 283 284 283 283 282 280
287 286 285 285 287 289 291 293 293 293 293 292 291 290 290 289 293 293 290 287 287 287 286 286 286 286 286 286 288 289 289 290 291 288 285 284 284 284 284 283 283 283 282
281 281 281 281 282 284 286 287 289 290 290 289 289 288 287 287 291 290 287 285 285 285 285 285 286 285 286 285 285 284 284 284 285 286 285 286 285 285 285 284 283 282 282
278 279 279 279 280 281 281 282 284 285 286 286 285 285 285 286 289 289 285 284 283 283 284 284 284 283 285 285 282 282 281 282 285 286 286 286 286 287 286 282 278 278 276
276 277 277 277 278 278 278 280 280 281 283 283 283 282 282 282 287 286 284 282 281 281 282 282 282 282 283 284 282 281 280 280 281 282 282 282 283 282 283 282 280 278 278
275 275 275 275 276 276 276 277 278 279 280 279 279 280 281 281 283 284 283 280 280 280 280 280 280 281 282 282 282 280 279 281 280 278 277 278 278 279 280 281 281 280 277
274 273 273 273 274 274 272 274 275 276 276 276 276 277 278 279 280 281 281 281 280 279 278 278 279 280 280 279 278 279 279 277 275 273 273 274 274 275 276 276 277 277 277
271 271 271 271 273 273 271 272 274 275 276 276 276 275 276 277 277 278 279 279 279 277 278 278 278 278 276 276 275 276 274 273 271 269 269 270 272 273 273 272 273 274 274
267 269 271 271 271 272 272 273 273 272 272 273 273 272 273 274 275 276 276 276 277 277 277 276 275 274 274 273 272 272 271 271 270 269 269 270 270 269 268 270 268 269 268
269 269 269 270 270 270 273 271 272 275 274 270 271 272 271 272 275 277 277 277 276 276 271 270 270 269 269 269 269 269 269 269 268 268 267 267 267 267 267 268 267 266 265
269 269 269 269 269 271 271 270 276 277 277 277 277 275 274 276 277 278 278 276 275 273 268 267 267 267 266 266 266 266 266 266 267 267 266 266 265 265 265 266 266 264 263
267 268 268 268 269 269 269 268 268 271 274 275 276 276 275 276 277 276 276 273 273 268 265 264 265 265 265 265 265 265 264 265 266 265 264 264 265 264 263 263 263 263 262
265 265 264 265 266 267 267 267 267 267 266 267 270 272 272 274 275 273 272 268 265 265 264 263 262 263 263 263 263 262 263 263 263 263 263 263 263 262 262 262 262 262 262
265 265 264 264 264 264 263 261 263 263 264 263 265 267 268 271 272 270 269 262 260 260 262 261 261 262 262 261 261 261 262 261 262 262 262 262 262 261 261 262 262 262 262
264 265 264 261 260 260 259 258 258 257 258 259 259 259 262 261 257 257 257 256 257 256 258 258 259 258 258 259 260 260 261 261 261 261 262 262 263 263 262 262 263 262 263
259 259 261 258 258 257 256 255 256 255 253 252 252 256 270 258 254 254 255 255 255 256 257 256 256 258 259 260 259 260 260 261 262 262 263 263 263 263 264 264 264 264 264
256 256 255 254 254 254 253 253 253 252 252 252 254 252 267 253 252 253 254 254 255 255 256 256 258 258 259 260 260 260 260 261 261 262 263 264 264 264 265 265 265 266 266
256 254 253 252 251 253 251 250 250 249 250 250 250 252 251 251 252 253 255 256 255 254 255 253 256 258 259 259 260 261 261 261 262 263 263 263 264 265 265 265 265 266 268
250 249 249 249 248 249 249 250 250 254 254 255 256 257 257 257 258 258 257 257 255 255 256 255 256 257 258 259 260 261 262 262 263 264 264 264 264 265 265 267 269 269 268
247 247 247 248 248 250 250 251 254 257 257 258 259 258 258 258 256 256 254 253 253 254 255 256 256 257 257 258 259 260 261 262 263 264 265 266 267 267 269 269 267 267 266
246 246 247 250 251 251 252 254 253 254 256 258 258 257 256 254 254 253 254 253 253 253 255 257 257 256 257 258 259 261 264 266 266 268 269 270 271 270 269 268 266 265 265
Wind_Speed
5 6 6 6 6 6 6 7 7 7 8 9 10 10 11 10 10 11 10 8 11 9 5 7 7 6 4 4 4 3 4 4 6 4 4 2 4 6 7 5 5 6 6
6 5 6 6 6 5 6 7 6 8 7 9 8 8 9 9 10 11 10 8 10 9 7 7 7 5 6 6 5 6 5 5 4 6 3 3 5 5 6 7 6 6 6
5 6 6 7 6 6 7 6 6 6 6 5 6 8 8 8 7 7 8 9 9 7 8 7 7 7 6 5 5 5 4 4 4 4 3 1 3 3 3 4 5 6 5
7 6 7 6 6 6 6 6 6 5 6 6 5 5 6 6 6 6 6 5 5 6 6 7 7 7 7 7 6 6 4 3 2 3 3 4 4 3 2 4 6 4 9
6 7 7 7 6 6 7 7 6 6 6 5 5 5 4 5 4 7 6 7 7 6 5 5 5 6 8 7 4 4 4 3 3 4 4 3 3 2 3 2 6 9 10
7 7 9 10 10 9 8 7 7 7 5 4 6 6 6 4 6 9 8 6 6 6 6 5 4 5 4 5 5 6 5 4 4 3 3 5 5 4 2 3 6 7 7
10 10 10 10 10 10 10 8 7 7 4 6 5 4 4 2 3 5 6 4 4 4 4 4 2 2 4 3 4 4 4 6 7 4 8 5 6 2 5 8 8 10 10
10 11 11 12 11 11 10 8 7 5 4 3 4 2 1 2 6 8 9 6 5 4 4 3 3 4 5 4 3 2 3 3 5 4 5 6 5 4 6 8 10 12 11
9 9 10 9 10 10 11 11 8 6 4 2 2 5 6 6 9 9 6 5 5 5 4 5 6 6 8 7 4 2 3 4 5 9 12 14 15 16 13 6 6 8 9
10 8 8 8 7 8 9 9 6 5 5 3 6 7 7 7 13 13 7 3 5 4 5 6 11 7 8 7 4 4 5 5 5 5 4 6 9 9 13 7 6 8 9
8 8 7 7 6 7 7 6 7 6 5 7 9 9 10 9 11 16 14 7 4 3 4 4 4 8 9 9 9 5 7 9 8 5 5 4 5 4 4 5 5 6 8
6 6 6 6 6 6 5 6 7 7 7 7 7 8 8 10 14 14 14 12 8 4 4 3 2 6 7 8 6 9 11 9 4 4 4 4 4 5 5 7 9 9 9
6 5 6 7 6 5 5 5 4 6 6 5 5 5 5 5 6 12 13 11 9 4 2 2 4 5 5 3 5 6 5 3 2 3 4 4 4 5 8 7 7 10 10
5 6 6 6 7 8 6 5 5 5 5 4 4 4 4 5 4 4 4 3 5 4 4 4 4 4 5 5 4 5 4 4 5 4 4 6 6 5 6 6 7 8 9
5 4 5 4 5 5 5 4 5 5 5 4 3 3 3 3 4 6 5 3 4 7 4 2 2 2 2 3 4 4 4 4 4 4 5 6 7 7 7 6 7 8 10
5 5 4 3 3 3 3 3 11 10 11 13 11 5 2 7 9 8 10 12 10 7 2 2 3 4 4 4 4 4 4 4 5 5 6 7 7 7 8 7 7 8 10
4 5 4 5 5 4 4 3 3 4 8 12 12 10 11 10 10 13 12 8 8 5 2 3 3 4 5 4 4 4 5 6 7 6 7 7 8 8 9 8 8 8 10
3 5 2 2 3 3 3 3 2 3 3 3 7 8 10 11 9 11 11 5 2 4 2 3 3 3 4 5 5 4 5 6 6 7 7 8 8 9 9 9 9 10 10
2 1 2 2 2 2 2 3 3 4 3 3 3 5 6 10 9 9 8 2 1 2 3 4 4 4 5 5 5 5 6 7 7 8 8 8 9 9 10 10 10 14 14
3 4 3 2 3 3 2 2 2 2 2 2 3 3 4 3 2 2 2 2 3 2 3 4 4 4 5 6 6 7 7 7 7 7 9 9 9 9 11 12 11 12 12
2 3 4 2 2 2 2 2 2 2 2 3 3 4 10 2 2 2 3 3 3 4 5 4 5 6 6 6 6 7 8 8 9 9 10 10 10 10 12 12 13 13 14
2 2 2 2 2 2 3 2 2 2 3 3 4 4 11 2 2 4 4 4 4 4 4 5 6 6 7 7 7 8 9 10 10 10 11 11 11 12 13 13 14 14 14
2 2 3 3 2 3 3 3 3 3 3 3 3 4 3 3 4 4 5 5 4 5 4 3 6 8 8 8 8 9 10 11 11 10 12 13 13 13 13 14 15 16 15
1 2 3 3 2 2 3 4 3 4 4 4 4 4 4 4 5 6 6 6 5 6 5 5 7 10 10 9 8 9 10 11 11 12 17 15 15 17 15 16 15 15 13
2 2 2 3 3 3 3 3 3 4 4 4 5 4 4 5 5 6 5 5 5 6 8 7 7 9 11 13 15 18 19 22 18 19 14 18 21 24 18 12 12 16 18
3 3 3 3 3 3 3 4 4 4 5 5 5 5 5 5 5 5 6 5 6 6 8 8 10 13 15 14 17 19 21 23 21 24 18 18 16 12 14 15 19 14 16
Wind_Direction
303 296 297 290 283 271 248 246 237 235 221 221 217 214 211 210 206 211 210 190 201 195 179 182 187 157 178 182 179 179 194 175 210 283 246 302 293 287 299 296 291 290 289
288 299 297 300 298 294 282 268 245 233 220 221 214 209 204 200 193 199 194 188 196 188 179 186 184 169 188 188 184 196 197 199 182 242 252 242 242 263 265 285 291 294 288
265 266 280 288 298 290 287 284 286 276 256 240 213 212 207 202 186 195 192 186 189 188 186 180 182 178 191 191 189 192 204 199 200 222 270 265 268 258 273 269 274 274 275
278 262 272 285 283 283 286 283 277 259 259 253 243 232 210 189 190 177 168 165 181 191 181 185 183 185 188 194 197 200 200 216 228 247 258 261 248 275 281 284 313 304 305
298 310 317 313 309 300 298 294 290 272 263 245 234 235 218 206 196 179 180 180 176 182 187 185 185 186 188 189 174 198 181 207 241 257 263 257 259 279 261 294 300 310 305
4 5 2 2 348 337 322 306 294 282 273 256 244 233 220 219 192 182 168 178 172 177 179 179 177 168 184 185 192 191 182 195 240 240 260 268 274 279 304 300 305 321 317
2 2 4 358 347 340 331 325 310 293 285 271 269 254 259 266 206 155 135 138 148 162 163 159 146 85 85 63 14 1 332 295 263 263 273 264 279 281 305 305 300 296 281
5 359 358 355 346 340 335 331 321 317 302 292 297 307 10 36 105 101 81 91 96 91 91 100 102 78 55 56 31 358 316 293 286 282 277 295 287 312 298 296 299 293 287
7 356 351 350 346 345 347 338 332 327 328 342 47 99 95 62 72 65 66 84 84 77 76 72 83 81 54 36 39 326 279 258 277 298 301 298 301 296 297 302 292 297 307
349 347 349 345 350 352 342 341 330 332 349 34 62 56 70 73 68 62 67 81 85 76 66 71 67 50 29 5 350 323 306 316 300 283 314 312 294 289 298 287 287 286 298
343 346 350 352 353 357 347 350 347 353 32 52 63 53 60 54 63 60 58 57 61 80 86 70 49 16 2 355 349 349 319 319 347 341 304 290 285 287 284 285 286 290 291
347 350 347 346 356 3 12 13 11 19 33 35 57 63 56 51 54 49 50 52 54 80 82 71 35 4 7 4 1 341 342 353 342 321 313 309 327 330 329 323 314 303 293
359 349 354 348 354 359 12 28 39 36 41 33 42 48 58 54 48 40 35 38 42 57 58 23 17 14 4 23 2 5 12 3 339 326 324 315 317 313 311 306 301 298 292
4 356 353 5 1 2 9 12 40 51 58 57 49 40 27 33 30 25 25 358 2 12 21 28 27 42 34 18 354 2 355 347 340 310 301 301 307 314 308 304 298 298 292
357 358 4 2 18 14 7 6 11 26 69 91 47 27 33 40 14 13 7 17 37 26 35 11 17 34 4 358 352 345 341 323 310 311 308 310 311 306 299 299 290 291 284
354 357 357 349 352 23 21 10 24 44 47 54 56 66 12 19 5 354 32 44 35 37 42 1 355 354 356 339 328 325 306 310 312 313 307 303 296 295 294 290 280 272 280
6 357 352 1 3 13 14 11 7 3 26 30 25 37 21 7 5 21 18 30 43 46 63 360 357 336 328 317 310 304 308 310 309 300 294 290 288 284 287 280 276 276 279
2 21 1 351 357 358 358 351 360 3 1 2 8 17 2 352 18 13 8 21 358 29 55 306 302 327 304 296 295 301 298 295 287 279 275 276 274 276 279 278 277 279 281
330 357 5 357 350 359 343 354 7 7 356 335 334 350 355 348 359 5 16 11 318 3 336 312 314 310 290 288 286 287 276 274 270 275 275 270 269 269 274 276 277 273 272
335 347 14 360 352 354 4 7 357 336 317 315 329 306 309 14 1 294 331 320 323 281 294 293 292 266 277 289 289 281 279 276 276 272 271 270 269 267 272 272 270 274 272
312 326 346 356 341 316 316 329 320 325 310 312 286 290 317 101 304 300 302 301 294 296 280 279 291 289 279 272 271 272 277 276 275 277 276 272 273 273 266 268 269 266 267
307 310 323 302 307 323 302 285 295 293 283 288 292 293 326 342 294 283 292 287 286 273 267 267 276 272 271 278 281 276 279 280 279 276 275 278 278 272 272 274 274 273 272
275 302 312 304 306 311 325 314 300 290 283 270 269 293 305 286 274 267 269 274 268 276 280 263 270 275 268 259 257 261 270 273 275 279 280 279 277 276 276 277 275 271 273
225 252 263 277 300 293 282 285 278 270 273 278 285 282 276 281 292 298 297 296 291 284 273 258 254 258 273 273 275 272 270 271 272 274 277 278 278 281 276 275 273 288 290
274 291 299 283 283 279 286 277 278 283 282 280 282 273 279 281 278 278 274 270 271 277 280 273 269 274 279 284 284 283 279 279 276 276 276 276 276 276 273 291 286 289 287
271 278 274 282 280 270 268 279 277 279 281 279 277 267 268 271 269 270 276 273 276 275 285 288 285 282 285 286 283 283 286 289 291 290 284 284 285 302 292 285 295 284 279